Year,Month,Day,Hour,Minute,Value (Times are PST for temperature in C)
2009,07,05,00,00,21.40
2009,07,05,00,01,21.40
2009,07,05,00,02,21.50
2009,07,05,00,03,21.50
2009,07,05,00,04,21.50
2009,07,05,00,05,21.60
2009,07,05,00,06,21.70
2009,07,05,00,07,21.70
2009,07,05,00,08,21.80
2009,07,05,00,09,21.80
2009,07,05,00,10,21.80
2009,07,05,00,11,21.80
2009,07,05,00,12,21.80
2009,07,05,00,13,21.80
2009,07,05,00,14,21.80
2009,07,05,00,15,21.80
2009,07,05,00,16,21.80
2009,07,05,00,17,21.80
2009,07,05,00,18,21.80
2009,07,05,00,19,21.80
2009,07,05,00,20,21.80
2009,07,05,00,21,21.80
2009,07,05,00,22,21.80
2009,07,05,00,23,21.80
2009,07,05,00,24,21.80
2009,07,05,00,25,21.80
2009,07,05,00,26,21.80
2009,07,05,00,27,21.80
2009,07,05,00,28,21.70
2009,07,05,00,29,21.70
2009,07,05,00,30,21.70
2009,07,05,00,31,21.70
2009,07,05,00,32,21.80
2009,07,05,00,33,21.80
2009,07,05,00,34,21.80
2009,07,05,00,35,21.80
2009,07,05,00,36,21.80
2009,07,05,00,37,21.80
2009,07,05,00,38,21.80
2009,07,05,00,39,21.80
2009,07,05,00,40,21.70
2009,07,05,00,41,21.70
2009,07,05,00,42,21.60
2009,07,05,00,43,21.60
2009,07,05,00,44,21.60
2009,07,05,00,45,21.50
2009,07,05,00,46,21.50
2009,07,05,00,47,21.50
2009,07,05,00,48,21.50
2009,07,05,00,49,21.40
2009,07,05,00,50,21.40
2009,07,05,00,51,21.40
2009,07,05,00,52,21.30
2009,07,05,00,53,21.30
2009,07,05,00,54,21.30
2009,07,05,00,55,21.30
2009,07,05,00,56,21.30
2009,07,05,00,57,21.20
2009,07,05,00,58,21.20
2009,07,05,00,59,21.20
2009,07,05,01,00,21.20
2009,07,05,01,01,21.20
2009,07,05,01,02,21.20
2009,07,05,01,03,21.10
2009,07,05,01,04,21.10
2009,07,05,01,05,21.10
2009,07,05,01,06,21.10
2009,07,05,01,07,21.10
2009,07,05,01,08,21.10
2009,07,05,01,09,21.00
2009,07,05,01,10,21.00
2009,07,05,01,11,20.90
2009,07,05,01,12,20.90
2009,07,05,01,13,20.90
2009,07,05,01,14,20.80
2009,07,05,01,15,20.80
2009,07,05,01,16,20.80
2009,07,05,01,17,20.70
2009,07,05,01,18,20.70
2009,07,05,01,19,20.70
2009,07,05,01,20,20.70
2009,07,05,01,21,20.70
2009,07,05,01,22,20.70
2009,07,05,01,23,20.70
2009,07,05,01,24,20.70
2009,07,05,01,25,20.70
2009,07,05,01,26,20.70
2009,07,05,01,27,20.80
2009,07,05,01,28,20.80
2009,07,05,01,29,20.80
2009,07,05,01,30,20.80
2009,07,05,01,31,20.80
2009,07,05,01,32,20.80
2009,07,05,01,33,20.90
2009,07,05,01,34,20.90
2009,07,05,01,35,20.90
2009,07,05,01,36,20.90
2009,07,05,01,37,20.90
2009,07,05,01,38,20.90
2009,07,05,01,39,21.00
2009,07,05,01,40,21.00
2009,07,05,01,41,21.00
2009,07,05,01,42,21.00
2009,07,05,01,43,21.00
2009,07,05,01,44,21.00
2009,07,05,01,45,21.10
2009,07,05,01,46,21.00
2009,07,05,01,47,21.00
2009,07,05,01,48,21.00
2009,07,05,01,49,21.00
2009,07,05,01,50,21.00
2009,07,05,01,51,20.90
2009,07,05,01,52,20.90
2009,07,05,01,53,20.90
2009,07,05,01,54,20.80
2009,07,05,01,55,20.80
2009,07,05,01,56,20.80
2009,07,05,01,57,20.80
2009,07,05,01,58,20.70
2009,07,05,01,59,20.70
2009,07,05,02,00,20.60
2009,07,05,02,01,20.60
2009,07,05,02,02,20.50
2009,07,05,02,03,20.40
2009,07,05,02,04,20.40
2009,07,05,02,05,20.40
2009,07,05,02,06,20.30
2009,07,05,02,07,20.20
2009,07,05,02,08,20.20
2009,07,05,02,09,20.10
2009,07,05,02,10,20.00
2009,07,05,02,11,20.00
2009,07,05,02,12,19.90
2009,07,05,02,13,19.90
2009,07,05,02,14,19.90
2009,07,05,02,15,19.90
2009,07,05,02,16,19.90
2009,07,05,02,17,19.80
2009,07,05,02,18,19.80
2009,07,05,02,19,19.80
2009,07,05,02,20,19.80
2009,07,05,02,21,19.80
2009,07,05,02,22,19.80
2009,07,05,02,23,19.80
2009,07,05,02,24,19.80
2009,07,05,02,25,19.80
2009,07,05,02,26,19.80
2009,07,05,02,27,19.80
2009,07,05,02,28,19.90
2009,07,05,02,29,19.90
2009,07,05,02,30,19.90
2009,07,05,02,31,19.90
2009,07,05,02,32,19.90
2009,07,05,02,33,19.90
2009,07,05,02,34,20.00
2009,07,05,02,35,20.00
2009,07,05,02,36,20.00
2009,07,05,02,37,20.10
2009,07,05,02,38,20.10
2009,07,05,02,39,20.10
2009,07,05,02,40,20.10
2009,07,05,02,41,20.10
2009,07,05,02,42,20.20
2009,07,05,02,43,20.20
2009,07,05,02,44,20.20
2009,07,05,02,45,20.20
2009,07,05,02,46,20.20
2009,07,05,02,47,20.20
2009,07,05,02,48,20.20
2009,07,05,02,49,20.20
2009,07,05,02,50,20.20
2009,07,05,02,51,20.20
2009,07,05,02,52,20.20
2009,07,05,02,53,20.20
2009,07,05,02,54,20.20
2009,07,05,02,55,20.20
2009,07,05,02,56,20.20
2009,07,05,02,57,20.20
2009,07,05,02,58,20.20
2009,07,05,02,59,20.20
2009,07,05,03,00,20.20
2009,07,05,03,01,20.20
2009,07,05,03,02,20.20
2009,07,05,03,03,20.20
2009,07,05,03,04,20.20
2009,07,05,03,05,20.20
2009,07,05,03,06,20.20
2009,07,05,03,07,20.20
2009,07,05,03,08,20.20
2009,07,05,03,09,20.20
2009,07,05,03,10,20.20
2009,07,05,03,11,20.20
2009,07,05,03,12,20.30
2009,07,05,03,13,20.30
2009,07,05,03,14,20.30
2009,07,05,03,15,20.20
2009,07,05,03,16,20.20
2009,07,05,03,17,20.20
2009,07,05,03,18,20.20
2009,07,05,03,19,20.20
2009,07,05,03,20,20.20
2009,07,05,03,21,20.20
2009,07,05,03,22,20.20
2009,07,05,03,23,20.30
2009,07,05,03,24,20.30
2009,07,05,03,25,20.30
2009,07,05,03,26,20.20
2009,07,05,03,27,20.20
2009,07,05,03,28,20.10
2009,07,05,03,29,20.10
2009,07,05,03,30,20.00
2009,07,05,03,31,20.00
2009,07,05,03,32,20.00
2009,07,05,03,33,20.00
2009,07,05,03,34,19.90
2009,07,05,03,35,19.90
2009,07,05,03,36,19.90
2009,07,05,03,37,19.90
2009,07,05,03,38,19.80
2009,07,05,03,39,19.80
2009,07,05,03,40,19.80
2009,07,05,03,41,19.70
2009,07,05,03,42,19.70
2009,07,05,03,43,19.70
2009,07,05,03,44,19.70
2009,07,05,03,45,19.70
2009,07,05,03,46,19.60
2009,07,05,03,47,19.60
2009,07,05,03,48,19.60
2009,07,05,03,49,19.60
2009,07,05,03,50,19.60
2009,07,05,03,51,19.50
2009,07,05,03,52,19.50
2009,07,05,03,53,19.50
2009,07,05,03,54,19.50
2009,07,05,03,55,19.50
2009,07,05,03,56,19.40
2009,07,05,03,57,19.40
2009,07,05,03,58,19.40
2009,07,05,03,59,19.40
2009,07,05,04,00,19.40
2009,07,05,04,01,19.30
2009,07,05,04,02,19.30
2009,07,05,04,03,19.30
2009,07,05,04,04,19.30
2009,07,05,04,05,19.30
2009,07,05,04,06,19.30
2009,07,05,04,07,19.30
2009,07,05,04,08,19.30
2009,07,05,04,09,19.30
2009,07,05,04,10,19.30
2009,07,05,04,11,19.30
2009,07,05,04,12,19.30
2009,07,05,04,13,19.30
2009,07,05,04,14,19.20
2009,07,05,04,15,19.20
2009,07,05,04,16,19.20
2009,07,05,04,17,19.10
2009,07,05,04,18,19.10
2009,07,05,04,19,19.10
2009,07,05,04,20,19.10
2009,07,05,04,21,19.10
2009,07,05,04,22,19.10
2009,07,05,04,23,19.10
2009,07,05,04,24,19.10
2009,07,05,04,25,19.10
2009,07,05,04,26,19.10
2009,07,05,04,27,19.00
2009,07,05,04,28,19.00
2009,07,05,04,29,19.00
2009,07,05,04,30,19.00
2009,07,05,04,31,19.00
2009,07,05,04,32,18.90
2009,07,05,04,33,18.90
2009,07,05,04,34,18.90
2009,07,05,04,35,18.90
2009,07,05,04,36,18.90
2009,07,05,04,37,18.90
2009,07,05,04,38,18.90
2009,07,05,04,39,18.80
2009,07,05,04,40,18.80
2009,07,05,04,41,18.80
2009,07,05,04,42,18.80
2009,07,05,04,43,18.80
2009,07,05,04,44,18.80
2009,07,05,04,45,18.70
2009,07,05,04,46,18.70
2009,07,05,04,47,18.70
2009,07,05,04,48,18.70
2009,07,05,04,49,18.70
2009,07,05,04,50,18.70
2009,07,05,04,51,18.70
2009,07,05,04,52,18.70
2009,07,05,04,53,18.80
2009,07,05,04,54,18.80
2009,07,05,04,55,18.80
2009,07,05,04,56,18.80
2009,07,05,04,57,18.80
2009,07,05,04,58,18.80
2009,07,05,04,59,18.80
2009,07,05,05,00,18.80
2009,07,05,05,01,18.80
2009,07,05,05,02,18.80
2009,07,05,05,03,18.70
2009,07,05,05,04,18.70
2009,07,05,05,05,18.70
2009,07,05,05,06,18.60
2009,07,05,05,07,18.60
2009,07,05,05,08,18.60
2009,07,05,05,09,18.50
2009,07,05,05,10,18.50
2009,07,05,05,11,18.40
2009,07,05,05,12,18.40
2009,07,05,05,13,18.40
2009,07,05,05,14,18.30
2009,07,05,05,15,18.30
2009,07,05,05,16,18.30
2009,07,05,05,17,18.20
2009,07,05,05,18,18.20
2009,07,05,05,19,18.20
2009,07,05,05,20,18.20
2009,07,05,05,21,18.20
2009,07,05,05,22,18.10
2009,07,05,05,23,18.10
2009,07,05,05,24,18.10
2009,07,05,05,25,18.10
2009,07,05,05,26,18.10
2009,07,05,05,27,18.10
2009,07,05,05,28,18.10
2009,07,05,05,29,18.00
2009,07,05,05,30,18.00
2009,07,05,05,31,18.00
2009,07,05,05,32,17.90
2009,07,05,05,33,17.90
2009,07,05,05,34,17.90
2009,07,05,05,35,17.90
2009,07,05,05,36,17.90
2009,07,05,05,37,17.80
2009,07,05,05,38,17.80
2009,07,05,05,39,17.80
2009,07,05,05,40,17.80
2009,07,05,05,41,17.80
2009,07,05,05,42,17.80
2009,07,05,05,43,17.70
2009,07,05,05,44,17.70
2009,07,05,05,45,17.70
2009,07,05,05,46,17.70
2009,07,05,05,47,17.70
2009,07,05,05,48,17.70
2009,07,05,05,49,17.70
2009,07,05,05,50,17.70
2009,07,05,05,51,17.70
2009,07,05,05,52,17.70
2009,07,05,05,53,17.70
2009,07,05,05,54,17.70
2009,07,05,05,55,17.70
2009,07,05,05,56,17.70
2009,07,05,05,57,17.70
2009,07,05,05,58,17.70
2009,07,05,05,59,17.70
2009,07,05,06,00,17.70
2009,07,05,06,01,17.70
2009,07,05,06,02,17.70
2009,07,05,06,03,17.70
2009,07,05,06,04,17.70
2009,07,05,06,05,17.70
2009,07,05,06,06,17.70
2009,07,05,06,07,17.70
2009,07,05,06,08,17.70
2009,07,05,06,09,17.70
2009,07,05,06,10,17.70
2009,07,05,06,11,17.70
2009,07,05,06,12,17.70
2009,07,05,06,13,17.70
2009,07,05,06,14,17.70
2009,07,05,06,15,17.70
2009,07,05,06,16,17.70
2009,07,05,06,17,17.70
2009,07,05,06,18,17.70
2009,07,05,06,19,17.70
2009,07,05,06,20,17.70
2009,07,05,06,21,17.70
2009,07,05,06,22,17.70
2009,07,05,06,23,17.70
2009,07,05,06,24,17.70
2009,07,05,06,25,17.80
2009,07,05,06,26,17.80
2009,07,05,06,27,17.80
2009,07,05,06,28,17.80
2009,07,05,06,29,17.80
2009,07,05,06,30,17.80
2009,07,05,06,31,17.80
2009,07,05,06,32,17.80
2009,07,05,06,33,17.80
2009,07,05,06,34,17.80
2009,07,05,06,35,17.80
2009,07,05,06,36,17.80
2009,07,05,06,37,17.80
2009,07,05,06,38,17.80
2009,07,05,06,39,17.80
2009,07,05,06,40,17.80
2009,07,05,06,41,17.80
2009,07,05,06,42,17.80
2009,07,05,06,43,17.80
2009,07,05,06,44,17.80
2009,07,05,06,45,17.80
2009,07,05,06,46,17.80
2009,07,05,06,47,17.80
2009,07,05,06,48,17.80
2009,07,05,06,49,17.70
2009,07,05,06,50,17.70
2009,07,05,06,51,17.70
2009,07,05,06,52,17.70
2009,07,05,06,53,17.70
2009,07,05,06,54,17.70
2009,07,05,06,55,17.70
2009,07,05,06,56,17.70
2009,07,05,06,57,17.70
2009,07,05,06,58,17.70
2009,07,05,06,59,17.70
2009,07,05,07,00,17.70
2009,07,05,07,01,17.60
2009,07,05,07,02,17.60
2009,07,05,07,03,17.60
2009,07,05,07,04,17.60
2009,07,05,07,05,17.60
2009,07,05,07,06,17.60
2009,07,05,07,07,17.60
2009,07,05,07,08,17.60
2009,07,05,07,09,17.60
2009,07,05,07,10,17.60
2009,07,05,07,11,17.60
2009,07,05,07,12,17.60
2009,07,05,07,13,17.60
2009,07,05,07,14,17.60
2009,07,05,07,15,17.60
2009,07,05,07,16,17.60
2009,07,05,07,17,17.60
2009,07,05,07,18,17.60
2009,07,05,07,19,17.60
2009,07,05,07,20,17.60
2009,07,05,07,21,17.60
2009,07,05,07,22,17.60
2009,07,05,07,23,17.70
2009,07,05,07,24,17.70
2009,07,05,07,25,17.70
2009,07,05,07,26,17.70
2009,07,05,07,27,17.70
2009,07,05,07,28,17.80
2009,07,05,07,29,17.80
2009,07,05,07,30,17.80
2009,07,05,07,31,17.80
2009,07,05,07,32,17.90
2009,07,05,07,33,17.90
2009,07,05,07,34,17.90
2009,07,05,07,35,17.90
2009,07,05,07,36,17.90
2009,07,05,07,37,17.90
2009,07,05,07,38,17.90
2009,07,05,07,39,17.90
2009,07,05,07,40,17.90
2009,07,05,07,41,17.90
2009,07,05,07,42,17.90
2009,07,05,07,43,17.90
2009,07,05,07,44,17.90
2009,07,05,07,45,17.90
2009,07,05,07,46,18.00
2009,07,05,07,47,18.00
2009,07,05,07,48,18.00
2009,07,05,07,49,18.00
2009,07,05,07,50,18.10
2009,07,05,07,51,18.10
2009,07,05,07,52,18.10
2009,07,05,07,53,18.10
2009,07,05,07,54,18.10
2009,07,05,07,55,18.10
2009,07,05,07,56,18.10
2009,07,05,07,57,18.10
2009,07,05,07,58,18.20
2009,07,05,07,59,18.20
2009,07,05,08,00,18.30
2009,07,05,08,01,18.30
2009,07,05,08,02,18.30
2009,07,05,08,03,18.40
2009,07,05,08,04,18.40
2009,07,05,08,05,18.40
2009,07,05,08,06,18.50
2009,07,05,08,07,18.50
2009,07,05,08,08,18.50
2009,07,05,08,09,18.60
2009,07,05,08,10,18.60
2009,07,05,08,11,18.70
2009,07,05,08,12,18.70
2009,07,05,08,13,18.70
2009,07,05,08,14,18.80
2009,07,05,08,15,18.80
2009,07,05,08,16,18.80
2009,07,05,08,17,18.80
2009,07,05,08,18,18.90
2009,07,05,08,19,18.90
2009,07,05,08,20,18.90
2009,07,05,08,21,19.00
2009,07,05,08,22,19.00
2009,07,05,08,23,19.10
2009,07,05,08,24,19.10
2009,07,05,08,25,19.10
2009,07,05,08,26,19.10
2009,07,05,08,27,19.10
2009,07,05,08,28,19.10
2009,07,05,08,29,19.00
2009,07,05,08,30,19.00
2009,07,05,08,31,19.00
2009,07,05,08,32,18.90
2009,07,05,08,33,18.90
2009,07,05,08,34,18.90
2009,07,05,08,35,18.90
2009,07,05,08,36,18.90
2009,07,05,08,37,18.80
2009,07,05,08,38,18.80
2009,07,05,08,39,18.80
2009,07,05,08,40,18.80
2009,07,05,08,41,18.80
2009,07,05,08,42,18.70
2009,07,05,08,43,18.70
2009,07,05,08,44,18.80
2009,07,05,08,45,18.80
2009,07,05,08,46,18.80
2009,07,05,08,47,18.80
2009,07,05,08,48,18.80
2009,07,05,08,49,18.80
2009,07,05,08,50,18.80
2009,07,05,08,51,18.70
2009,07,05,08,52,18.70
2009,07,05,08,53,18.70
2009,07,05,08,54,18.80
2009,07,05,08,55,18.80
2009,07,05,08,56,18.80
2009,07,05,08,57,18.80
2009,07,05,08,58,18.80
2009,07,05,08,59,18.80
2009,07,05,09,00,18.80
2009,07,05,09,01,18.90
2009,07,05,09,02,18.90
2009,07,05,09,03,18.80
2009,07,05,09,04,18.80
2009,07,05,09,05,18.80
2009,07,05,09,06,18.80
2009,07,05,09,07,18.80
2009,07,05,09,08,18.70
2009,07,05,09,09,18.70
2009,07,05,09,10,18.80
2009,07,05,09,11,18.80
2009,07,05,09,12,18.80
2009,07,05,09,13,18.90
2009,07,05,09,14,18.90
2009,07,05,09,15,18.90
2009,07,05,09,16,19.00
2009,07,05,09,17,19.00
2009,07,05,09,18,19.00
2009,07,05,09,19,19.00
2009,07,05,09,20,19.00
2009,07,05,09,21,19.10
2009,07,05,09,22,19.00
2009,07,05,09,23,18.90
2009,07,05,09,24,18.90
2009,07,05,09,25,18.90
2009,07,05,09,26,18.80
2009,07,05,09,27,18.80
2009,07,05,09,28,18.80
2009,07,05,09,29,18.70
2009,07,05,09,30,18.70
2009,07,05,09,31,18.70
2009,07,05,09,32,18.70
2009,07,05,09,33,18.70
2009,07,05,09,34,18.70
2009,07,05,09,35,18.60
2009,07,05,09,36,18.50
2009,07,05,09,37,18.50
2009,07,05,09,38,18.50
2009,07,05,09,39,18.60
2009,07,05,09,40,18.50
2009,07,05,09,41,18.40
2009,07,05,09,42,18.40
2009,07,05,09,43,18.40
2009,07,05,09,44,18.40
2009,07,05,09,45,18.30
2009,07,05,09,46,18.30
2009,07,05,09,47,18.30
2009,07,05,09,48,18.30
2009,07,05,09,49,18.30
2009,07,05,09,50,18.20
2009,07,05,09,51,18.30
2009,07,05,09,52,18.30
2009,07,05,09,53,18.30
2009,07,05,09,54,18.30
2009,07,05,09,55,18.40
2009,07,05,09,56,18.40
2009,07,05,09,57,18.40
2009,07,05,09,58,18.40
2009,07,05,09,59,18.40
2009,07,05,10,00,18.50
2009,07,05,10,01,18.50
2009,07,05,10,02,18.50
2009,07,05,10,03,18.60
2009,07,05,10,04,18.70
2009,07,05,10,05,18.70
2009,07,05,10,06,18.70
2009,07,05,10,07,18.70
2009,07,05,10,08,18.70
2009,07,05,10,09,18.70
2009,07,05,10,10,18.70
2009,07,05,10,11,18.70
2009,07,05,10,12,18.70
2009,07,05,10,13,18.70
2009,07,05,10,14,18.60
2009,07,05,10,15,18.60
2009,07,05,10,16,18.60
2009,07,05,10,17,18.60
2009,07,05,10,18,18.60
2009,07,05,10,19,18.70
2009,07,05,10,20,18.70
2009,07,05,10,21,18.60
2009,07,05,10,22,18.60
2009,07,05,10,23,18.60
2009,07,05,10,24,18.70
2009,07,05,10,25,18.80
2009,07,05,10,26,18.80
2009,07,05,10,27,18.90
2009,07,05,10,28,19.00
2009,07,05,10,29,19.10
2009,07,05,10,30,19.20
2009,07,05,10,31,19.20
2009,07,05,10,32,19.30
2009,07,05,10,33,19.30
2009,07,05,10,34,19.20
2009,07,05,10,35,19.20
2009,07,05,10,36,19.20
2009,07,05,10,37,19.10
2009,07,05,10,38,19.10
2009,07,05,10,39,19.10
2009,07,05,10,40,19.10
2009,07,05,10,41,19.10
2009,07,05,10,42,19.10
2009,07,05,10,43,19.10
2009,07,05,10,44,19.10
2009,07,05,10,45,19.10
2009,07,05,10,46,19.10
2009,07,05,10,47,19.10
2009,07,05,10,48,19.10
2009,07,05,10,49,19.10
2009,07,05,10,50,19.10
2009,07,05,10,51,19.20
2009,07,05,10,52,19.20
2009,07,05,10,53,19.30
2009,07,05,10,54,19.30
2009,07,05,10,55,19.30
2009,07,05,10,56,19.40
2009,07,05,10,57,19.40
2009,07,05,10,58,19.40
2009,07,05,10,59,19.50
2009,07,05,11,00,19.50
2009,07,05,11,01,19.60
2009,07,05,11,02,19.70
2009,07,05,11,03,19.80
2009,07,05,11,04,19.90
2009,07,05,11,05,19.90
2009,07,05,11,06,20.00
2009,07,05,11,07,20.00
2009,07,05,11,08,20.00
2009,07,05,11,09,20.00
2009,07,05,11,10,20.00
2009,07,05,11,11,20.00
2009,07,05,11,12,20.00
2009,07,05,11,13,20.00
2009,07,05,11,14,20.10
2009,07,05,11,15,20.20
2009,07,05,11,16,20.20
2009,07,05,11,17,20.20
2009,07,05,11,18,20.10
2009,07,05,11,19,20.10
2009,07,05,11,20,20.20
2009,07,05,11,21,20.20
2009,07,05,11,22,20.20
2009,07,05,11,23,20.20
2009,07,05,11,24,20.10
2009,07,05,11,25,20.10
2009,07,05,11,26,20.10
2009,07,05,11,27,20.20
2009,07,05,11,28,20.20
2009,07,05,11,29,20.30
2009,07,05,11,30,20.30
2009,07,05,11,31,20.40
2009,07,05,11,32,20.40
2009,07,05,11,33,20.50
2009,07,05,11,34,20.50
2009,07,05,11,35,20.60
2009,07,05,11,36,20.60
2009,07,05,11,37,20.60
2009,07,05,11,38,20.70
2009,07,05,11,39,20.80
2009,07,05,11,40,20.80
2009,07,05,11,41,21.00
2009,07,05,11,42,21.10
2009,07,05,11,43,21.30
2009,07,05,11,44,21.40
2009,07,05,11,45,21.50
2009,07,05,11,46,21.60
2009,07,05,11,47,21.60
2009,07,05,11,48,21.60
2009,07,05,11,49,21.60
2009,07,05,11,50,21.60
2009,07,05,11,51,21.50
2009,07,05,11,52,21.40
2009,07,05,11,53,21.30
2009,07,05,11,54,21.30
2009,07,05,11,55,21.30
2009,07,05,11,56,21.40
2009,07,05,11,57,21.40
2009,07,05,11,58,21.40
2009,07,05,11,59,21.20
2009,07,05,12,00,21.20
2009,07,05,12,01,21.20
2009,07,05,12,02,21.20
2009,07,05,12,03,21.20
2009,07,05,12,04,21.10
2009,07,05,12,05,21.00
2009,07,05,12,06,20.90
2009,07,05,12,07,20.80
2009,07,05,12,08,20.80
2009,07,05,12,09,20.80
2009,07,05,12,10,20.90
2009,07,05,12,11,20.90
2009,07,05,12,12,21.00
2009,07,05,12,13,21.10
2009,07,05,12,14,21.20
2009,07,05,12,15,21.20
2009,07,05,12,16,21.30
2009,07,05,12,17,21.30
2009,07,05,12,18,21.30
2009,07,05,12,19,21.30
2009,07,05,12,20,21.30
2009,07,05,12,21,21.40
2009,07,05,12,22,21.40
2009,07,05,12,23,21.50
2009,07,05,12,24,21.60
2009,07,05,12,25,21.60
2009,07,05,12,26,21.70
2009,07,05,12,27,21.70
2009,07,05,12,28,21.70
2009,07,05,12,29,21.70
2009,07,05,12,30,21.80
2009,07,05,12,31,21.80
2009,07,05,12,32,21.90
2009,07,05,12,33,21.90
2009,07,05,12,34,21.90
2009,07,05,12,35,21.90
2009,07,05,12,36,21.80
2009,07,05,12,37,21.80
2009,07,05,12,38,21.80
2009,07,05,12,39,22.00
2009,07,05,12,40,22.10
2009,07,05,12,41,22.20
2009,07,05,12,42,22.20
2009,07,05,12,43,22.30
2009,07,05,12,44,22.40
2009,07,05,12,45,22.50
2009,07,05,12,46,22.50
2009,07,05,12,47,22.60
2009,07,05,12,48,22.60
2009,07,05,12,49,22.70
2009,07,05,12,50,22.70
2009,07,05,12,51,22.70
2009,07,05,12,52,22.60
2009,07,05,12,53,22.50
2009,07,05,12,54,22.50
2009,07,05,12,55,22.40
2009,07,05,12,56,22.40
2009,07,05,12,57,22.40
2009,07,05,12,58,22.40
2009,07,05,12,59,22.30
2009,07,05,13,00,22.30
2009,07,05,13,01,22.30
2009,07,05,13,02,22.30
2009,07,05,13,03,22.20
2009,07,05,13,04,22.20
2009,07,05,13,05,22.20
2009,07,05,13,06,22.10
2009,07,05,13,07,22.00
2009,07,05,13,08,21.80
2009,07,05,13,09,21.80
2009,07,05,13,10,21.70
2009,07,05,13,11,21.60
2009,07,05,13,12,21.50
2009,07,05,13,13,21.40
2009,07,05,13,14,21.30
2009,07,05,13,15,21.30
2009,07,05,13,16,21.30
2009,07,05,13,17,21.30
2009,07,05,13,18,21.30
2009,07,05,13,19,21.40
2009,07,05,13,20,21.50
2009,07,05,13,21,21.60
2009,07,05,13,22,21.80
2009,07,05,13,23,21.90
2009,07,05,13,24,22.00
2009,07,05,13,25,22.10
2009,07,05,13,26,22.20
2009,07,05,13,27,22.20
2009,07,05,13,28,22.20
2009,07,05,13,29,22.30
2009,07,05,13,30,22.40
2009,07,05,13,31,22.50
2009,07,05,13,32,22.60
2009,07,05,13,33,22.60
2009,07,05,13,34,22.50
2009,07,05,13,35,22.40
2009,07,05,13,36,22.40
2009,07,05,13,37,22.30
2009,07,05,13,38,22.30
2009,07,05,13,39,22.30
2009,07,05,13,40,22.30
2009,07,05,13,41,22.40
2009,07,05,13,42,22.50
2009,07,05,13,43,22.60
2009,07,05,13,44,22.60
2009,07,05,13,45,22.60
2009,07,05,13,46,22.50
2009,07,05,13,47,22.50
2009,07,05,13,48,22.50
2009,07,05,13,49,22.50
2009,07,05,13,50,22.50
2009,07,05,13,51,22.50
2009,07,05,13,52,22.50
2009,07,05,13,53,22.40
2009,07,05,13,54,22.30
2009,07,05,13,55,22.30
2009,07,05,13,56,22.30
2009,07,05,13,57,22.30
2009,07,05,13,58,22.20
2009,07,05,13,59,22.20
2009,07,05,14,00,22.20
2009,07,05,14,01,22.10
2009,07,05,14,02,22.00
2009,07,05,14,03,21.90
2009,07,05,14,04,21.80
2009,07,05,14,05,21.80
2009,07,05,14,06,21.80
2009,07,05,14,07,21.90
2009,07,05,14,08,21.90
2009,07,05,14,09,21.90
2009,07,05,14,10,21.90
2009,07,05,14,11,21.90
2009,07,05,14,12,21.90
2009,07,05,14,13,21.90
2009,07,05,14,14,21.90
2009,07,05,14,15,21.90
2009,07,05,14,16,21.90
2009,07,05,14,17,21.90
2009,07,05,14,18,21.90
2009,07,05,14,19,22.00
2009,07,05,14,20,22.00
2009,07,05,14,21,22.00
2009,07,05,14,22,22.10
2009,07,05,14,23,22.20
2009,07,05,14,24,22.40
2009,07,05,14,25,22.50
2009,07,05,14,26,22.50
2009,07,05,14,27,22.60
2009,07,05,14,28,22.70
2009,07,05,14,29,22.70
2009,07,05,14,30,22.60
2009,07,05,14,31,22.60
2009,07,05,14,32,22.50
2009,07,05,14,33,22.50
2009,07,05,14,34,22.50
2009,07,05,14,35,22.60
2009,07,05,14,36,22.50
2009,07,05,14,37,22.30
2009,07,05,14,38,22.10
2009,07,05,14,39,21.90
2009,07,05,14,40,21.70
2009,07,05,14,41,21.50
2009,07,05,14,42,21.30
2009,07,05,14,43,21.20
2009,07,05,14,44,21.10
2009,07,05,14,45,21.00
2009,07,05,14,46,20.90
2009,07,05,14,47,20.80
2009,07,05,14,48,20.80
2009,07,05,14,49,20.70
2009,07,05,14,50,20.60
2009,07,05,14,51,20.60
2009,07,05,14,52,20.60
2009,07,05,14,53,20.60
2009,07,05,14,54,20.70
2009,07,05,14,55,20.70
2009,07,05,14,56,20.80
2009,07,05,14,57,20.80
2009,07,05,14,58,20.80
2009,07,05,14,59,20.80
2009,07,05,15,00,20.80
2009,07,05,15,01,20.80
2009,07,05,15,02,20.80
2009,07,05,15,03,20.90
2009,07,05,15,04,20.90
2009,07,05,15,05,21.00
2009,07,05,15,06,21.10
2009,07,05,15,07,21.10
2009,07,05,15,08,21.20
2009,07,05,15,09,21.20
2009,07,05,15,10,21.20
2009,07,05,15,11,21.30
2009,07,05,15,12,21.30
2009,07,05,15,13,21.30
2009,07,05,15,14,21.30
2009,07,05,15,15,21.30
2009,07,05,15,16,21.20
2009,07,05,15,17,21.20
2009,07,05,15,18,21.20
2009,07,05,15,19,21.20
2009,07,05,15,20,21.20
2009,07,05,15,21,21.30
2009,07,05,15,22,21.30
2009,07,05,15,23,21.30
2009,07,05,15,24,21.40
2009,07,05,15,25,21.50
2009,07,05,15,26,21.50
2009,07,05,15,27,21.50
2009,07,05,15,28,21.40
2009,07,05,15,29,21.40
2009,07,05,15,30,21.30
2009,07,05,15,31,21.30
2009,07,05,15,32,21.30
2009,07,05,15,33,21.20
2009,07,05,15,34,21.20
2009,07,05,15,35,21.30
2009,07,05,15,36,21.30
2009,07,05,15,37,21.30
2009,07,05,15,38,21.30
2009,07,05,15,39,21.40
2009,07,05,15,40,21.40
2009,07,05,15,41,21.40
2009,07,05,15,42,21.40
2009,07,05,15,43,21.40
2009,07,05,15,44,21.50
2009,07,05,15,45,21.60
2009,07,05,15,46,21.60
2009,07,05,15,47,21.70
2009,07,05,15,48,21.70
2009,07,05,15,49,21.70
2009,07,05,15,50,21.70
2009,07,05,15,51,21.70
2009,07,05,15,52,21.70
2009,07,05,15,53,21.70
2009,07,05,15,54,21.70
2009,07,05,15,55,21.70
2009,07,05,15,56,21.80
2009,07,05,15,57,21.70
2009,07,05,15,58,21.60
2009,07,05,15,59,21.60
2009,07,05,16,00,21.50
2009,07,05,16,01,21.50
2009,07,05,16,02,21.50
2009,07,05,16,03,21.50
2009,07,05,16,04,21.60
2009,07,05,16,05,21.50
2009,07,05,16,06,21.50
2009,07,05,16,07,21.40
2009,07,05,16,08,21.30
2009,07,05,16,09,21.30
2009,07,05,16,10,21.40
2009,07,05,16,11,21.50
2009,07,05,16,12,21.60
2009,07,05,16,13,21.60
2009,07,05,16,14,21.60
2009,07,05,16,15,21.60
2009,07,05,16,16,21.50
2009,07,05,16,17,21.50
2009,07,05,16,18,21.40
2009,07,05,16,19,21.30
2009,07,05,16,20,21.20
2009,07,05,16,21,21.20
2009,07,05,16,22,21.10
2009,07,05,16,23,21.10
2009,07,05,16,24,21.00
2009,07,05,16,25,21.00
2009,07,05,16,26,20.90
2009,07,05,16,27,20.90
2009,07,05,16,28,20.90
2009,07,05,16,29,20.90
2009,07,05,16,30,21.00
2009,07,05,16,31,21.00
2009,07,05,16,32,21.00
2009,07,05,16,33,21.10
2009,07,05,16,34,21.20
2009,07,05,16,35,21.20
2009,07,05,16,36,21.30
2009,07,05,16,37,21.30
2009,07,05,16,38,21.30
2009,07,05,16,39,21.40
2009,07,05,16,40,21.40
2009,07,05,16,41,21.40
2009,07,05,16,42,21.50
2009,07,05,16,43,21.50
2009,07,05,16,44,21.60
2009,07,05,16,45,21.60
2009,07,05,16,46,21.60
2009,07,05,16,47,21.70
2009,07,05,16,48,21.70
2009,07,05,16,49,21.80
2009,07,05,16,50,21.80
2009,07,05,16,51,21.80
2009,07,05,16,52,21.80
2009,07,05,16,53,21.80
2009,07,05,16,54,21.80
2009,07,05,16,55,21.70
2009,07,05,16,56,21.70
2009,07,05,16,57,21.70
2009,07,05,16,58,21.60
2009,07,05,16,59,21.70
2009,07,05,17,00,21.70
2009,07,05,17,01,21.80
2009,07,05,17,02,21.80
2009,07,05,17,03,21.80
2009,07,05,17,04,21.80
2009,07,05,17,05,21.90
2009,07,05,17,06,21.90
2009,07,05,17,07,22.00
2009,07,05,17,08,22.00
2009,07,05,17,09,22.00
2009,07,05,17,10,22.00
2009,07,05,17,11,22.00
2009,07,05,17,12,22.10
2009,07,05,17,13,22.10
2009,07,05,17,14,22.10
2009,07,05,17,15,22.00
2009,07,05,17,16,22.00
2009,07,05,17,17,22.00
2009,07,05,17,18,22.10
2009,07,05,17,19,22.10